N1JFY Weather Reports


time (UTC)temp
C
wind
direction
speed
KPH
gust
KPH
rain 1hr
cm
rain 24hr
cm
rain mn
cm
humidity
%
barometer
mb
20260903120001 13 0.0 0.0 0.03 0.18 0.18 95 1016.2
20260903114559 13 0.0 0.0 0.03 0.18 0.18 95 1016.5
20260903113056 13 0.0 0.0 0.05 0.18 0.18 95 1016.7
20260903111547 13 0.0 0.0 0.05 0.15 0.15 95 1016.7
20260903110043 13 0.0 0.0 0.05 0.15 0.15 95 1016.7
20260903104539 13 0.0 0.0 0.13 0.15 0.15 95 1016.6
20260903103036 13 0.0 0.0 0.13 0.13 0.13 95 1016.7
20260903101530 13 0.0 0.0 0.10 0.10 0.10 94 1016.7
20260903100030 13 0.0 0.0 0.10 0.10 0.10 94 1016.7
20260903094521 12 0.0 0.0 0.03 0.03 0.03 93 1016.6
20260903093017 12 0.0 0.0 0.00 0.00 0.00 93 1016.7
20260903091517 12 0.0 0.0 0.00 0.00 0.00 93 1016.8
20260903090015 12 0.0 0.0 0.00 0.00 0.00 92 1016.9
20260903084512 12 0.0 0.0 0.00 0.00 0.00 91 1017.0
20260903083102 12 0.0 0.0 0.00 0.00 0.00 91 1017.1
20260903081555 12 0.0 0.0 0.00 0.00 0.00 90 1017.0
20260903080052 12 0.0 0.0 0.00 0.00 0.00 90 1017.2
20260903074551 12 0.0 0.0 0.00 0.00 0.00 90 1017.3
20260903073042 11 0.0 0.0 0.00 0.00 0.00 89 1017.4
20260903071538 11 0.0 0.0 0.00 0.00 0.00 89 1017.7
20260903070033 11 0.0 0.0 0.00 0.00 0.00 90 1018.1
20260903064531 11 0.0 0.0 0.00 0.00 0.00 90 1018.0
20260903063029 11 0.0 0.0 0.00 0.00 0.00 92 1018.1
20260903061532 10 0.0 0.0 0.00 0.00 0.00 93 1018.3
20260903060018 10 0.0 0.0 0.00 0.00 0.00 93 1018.4
20260903054513 10 0.0 0.0 0.00 0.00 0.00 93 1018.7
20260903053007 10 0.0 0.0 0.00 0.00 0.00 92 1018.8
20260903051504 10 0.0 0.0 0.00 0.00 0.00 92 1019.0
20260903050104 10 0.0 0.0 0.00 0.00 0.00 91 1018.9
20260903044601 10 0.0 0.0 0.00 0.00 0.00 90 1019.2
20260903043108 10 0.0 0.0 0.00 0.00 0.00 90 1019.1
20260903041551 10 0.0 0.0 0.00 0.00 0.00 89 1018.9
20260903040040 10 0.0 0.0 0.00 0.00 0.00 89 1018.9
20260903034536 11 0.0 0.0 0.00 0.00 0.00 89 1018.9
20260903033032 11 0.0 0.0 0.00 0.00 0.00 88 1018.9
20260903031528 11 0.0 0.0 0.00 0.00 0.00 86 1019.3
20260903030024 12 0.0 0.0 0.00 0.00 0.00 83 1019.3
20260903024519 13 0.0 0.0 0.00 0.00 0.00 81 1019.4
20260903023016 13 0.0 0.0 0.00 0.00 0.00 81 1019.5
20260903021512 12 0.0 0.0 0.00 0.00 0.00 82 1019.6
20260903020006 13 0.0 0.0 0.00 0.00 0.00 81 1019.7
20260903014502 13 0.0 0.0 0.00 0.00 0.00 80 1019.6
20260903013058 13 0.0 0.0 0.00 0.00 0.00 82 1019.5
20260903011557 12 0.0 0.0 0.00 0.00 0.00 84 1019.5
20260903010049 13 0.0 0.0 0.00 0.00 0.00 83 1019.6
20260903004544 13 0.0 0.0 0.00 0.00 0.00 82 1019.5
20260903003040 13 0.0 0.0 0.00 0.00 0.00 82 1019.6
20260903001536 13 0.0 0.0 0.00 0.00 0.00 80 1019.7
20260903000034 13 0.0 0.0 0.00 0.00 0.00 81 1019.7
20260902234527 13 0.0 0.0 0.00 0.00 0.00 83 1019.4
20260902233023 13 0.0 0.0 0.00 0.00 0.00 81 1019.4
20260902231524 15 0.0 0.0 0.00 0.00 0.00 77 1019.6
20260902230013 16 0.0 0.0 0.00 0.00 0.00 77 1019.7
20260902224511 16 0.0 0.0 0.00 0.00 0.00 69 1019.8
20260902223005 17 0.0 0.0 0.00 0.00 0.00 66 1019.9
20260902221502 18 0.0 0.0 0.00 0.00 0.00 64 1020.0
20260902220100 18 0.0 0.0 0.00 0.00 0.00 62 1020.1
20260902214556 18 0.0 0.0 0.00 0.00 0.00 61 1020.2
20260902213049 18 0.0 0.0 0.00 0.00 0.00 60 1020.2
20260902211553 18 0.0 0.0 0.00 0.00 0.00 59 1020.3
20260902210107 19 0.0 0.0 0.00 0.00 0.00 60 1020.5
20260902204540 20 0.0 0.0 0.00 0.00 0.00 55 1020.5
20260902203030 20 0.0 0.0 0.00 0.00 0.00 53 1020.7
20260902201530 20 0.0 0.0 0.00 0.00 0.00 54 1020.8
20260902200021 20 0.0 0.0 0.00 0.00 0.00 54 1020.8
20260902194517 21 0.0 0.0 0.00 0.00 0.00 51 1020.6
20260902193013 20 0.0 0.0 0.00 0.00 0.00 52 1020.9
20260902191509 20 0.0 0.0 0.00 0.00 0.00 55 1021.0
20260902190006 20 0.0 0.0 0.00 0.00 0.00 51 1021.0
20260902184600 20 0.0 0.0 0.00 0.00 0.00 57 1021.2
20260902183055 20 0.0 0.0 0.00 0.00 0.00 55 1021.5
20260902181651 19 0.0 0.0 0.00 0.00 0.00 56 1021.7
20260902180106 19 0.0 0.0 0.00 0.00 0.00 59 1022.0
20260902174540 20 0.0 0.0 0.00 0.00 0.00 56 1021.9
20260902173037 20 0.0 0.0 0.00 0.00 0.00 63 1021.9
20260902171533 19 0.0 0.0 0.00 0.00 0.00 62 1022.0
20260902170029 18 0.0 0.0 0.00 0.00 0.00 62 1022.0
20260902164523 19 0.0 0.0 0.00 0.00 0.00 58 1022.2
20260902163025 19 0.0 0.0 0.00 0.00 0.00 58 1022.2
20260902161515 19 0.0 0.0 0.00 0.00 0.00 63 1022.4
20260902160010 18 0.0 0.0 0.00 0.00 0.00 65 1022.5
20260902154506 18 0.0 0.0 0.00 0.00 0.00 68 1022.6
20260902153004 18 0.0 0.0 0.00 0.00 0.00 67 1022.7
20260902151601 17 0.0 0.0 0.00 0.00 0.00 70 1022.8
20260902150053 17 0.0 0.0 0.00 0.00 0.00 68 1022.8
20260902144600 17 0.0 0.0 0.00 0.00 0.00 74 1022.8
20260902143046 16 0.0 0.0 0.00 0.00 0.00 74 1022.8
20260902141541 16 0.0 0.0 0.00 0.00 0.00 78 1023.0
20260902140036 15 0.0 0.0 0.00 0.00 0.00 79 1023.0
20260902134535 15 0.0 0.0 0.00 0.00 0.00 84 1023.0
20260902133027 14 0.0 0.0 0.00 0.00 0.00 86 1023.1
20260902131523 13 0.0 0.0 0.00 0.00 0.00 90 1023.2
20260902130018 12 0.0 0.0 0.00 0.00 0.00 94 1023.3
20260902124514 11 0.0 0.0 0.00 0.00 0.00 94 1023.1
20260902123021 11 0.0 0.0 0.00 0.00 0.00 95 1023.0
20260902121505 11 0.0 0.0 0.00 0.00 0.00 96 1023.1